CZ-2C DEB, 40291

Orbit data source: Space-Track

CZ-2C DEB, 40291 is space debris in SSO originally from a launch on Mon, 27 Oct 2014 UTC launched from the Jiuquan Satellite Launch Center, China (JSC). Debris objects in space refer to the collection of defunct objects orbiting the Earth. Examples of debris include non-operational satellites, rocket bodies, and fragments generated from explosions, collisions, or faulty payload assembly.

Loading next visibility...
Identifier
40291, 2014-066F
Orbit
SSO
Country
Flag of CNCN / PRC
Related business
Manufacturer
CALT
Mission
Spacecraft
Bus & Motor
Unknown
Mass
1 kg wet, 1 kg dry
Launch date (UTC)
2014-10-27 (11 years ago)
Launch vehicle
Unknown
Launch site
Jiuquan Satellite Launch Center, China (JSC)
Object type
Payload
Rocket body
Debris
Shape & HBR
Cone, 0.1 m
Radar Cross Section
0.025 m², Small (<0.1 m²)

Expand to show TLE details & history
Last TLE update: 8 hours ago

TLE from 8 hours ago
0 CZ-2C DEB
1 40291U 14066F   26061.92378720  .00002432  00000-0  75327-3 0  9994
2 40291  98.2694  53.6426 0153160 234.7933 123.8833 14.35542389590465
Epoch: 2026-03-02T22:10Z
TLE epoch observation values (Epoch: 2026-03-02T22:10:15.214Z)
Latitude
0.00001°
Longitude
-79.63102°
Altitude
838.432 km
Speed
7.401 km/s
True Right ascension
03h 34m 34s
True Declination
0° 00' 00"
Sunlit
Object was in daylight at epoch
Visualization orbit readout
Latitude
Unknown
Longitude
Unknown
Altitude
Unknown
Speed
Unknown
Apparent Right ascension
Unknown
Apparent Declination
Unknown
Sunlit
N/A
Visualization observer readout
Local Sidereal Time
09:30:33
Azimuth
Unknown
Elevation
Unknown
Doppler factor
Unknown
Orbital elements
Apogee altitude
879.867 km
Perigee altitude
660.894 km
Semi-major axis
7,148.518 km
Eccentricity
0.01532
Inclination
98.2694°
RAAN
53.6426°
Arg. of periapsis
234.7933°
True anomaly
125.32478°
Mean anomaly
123.8833°
Eccentric anomaly
124.60559°
Mean motion
3.59103 °/min
Orbital period
100.25 mins
BSTAR
0.00075327
Loading maneuver chart data...
Computing Atmospheric mass density...
Loading historical data...
Loading historical data...
Loading historical data...
Loading historical data...
Loading historical data...
Loading historical data...
Loading historical data...
Other satellites on launch #66 in the year 2014 (2014-10-27 UTC)

Documentation

Showing up to 5 results
|